Location: ???????
(56.2167°N, 38.0500°E)
Time: 07:52:08
(UTC+00:00)

ARIANE 5 R/B - Pass Details

Date: 19 May 2025
Orbit: 615 x 647 km, 98.0° (Epoch: 20 June)

Event Time Altitude Azimuth Distance (km) Brightness Sun altitude
Exits shadow 21:23:52 13° 223° (SW) 1,791 4.5 -13.8°
Maximum altitude 21:26:37 22° 269° (W) 1,356 4.3 -13.8°
Drops below altitude 10° 21:30:04 10° 321° (NW) 2,009 5.9 -13.8°
Sets 21:32:41 0° 337° (NNW) 2,928 7.3 -13.8°
